Regional Weather Roundup
Issued by NWS

Home | Current Version | Previous Version | Graphics & Text | Print | Product List | Glossary On
Versions: 1 2 3 4 5 6 7 8 9 10 11 12 13 14 15 16 17 18 19 20 21 22 23 24 25 26 27 28 29 30 31 32 33 34 35 36 37 38 39 40 41 42 43 44 45 46 47 48 49 50
000
ASUS45 KSLC 010410
RWRUT

UTAH REGIONAL WEATHER ROUNDUP
NATIONAL WEATHER SERVICE SALT LAKE CITY UT
1000 PM MDT MON AUG 31 2015

UTZ001>011-023>025-010500-

NORTHERN UTAH

CITY           SKY/WX    TMP DP  RH WIND       PRES   REMARKS
BRIGHAM CITY   CLEAR     75  34  22 CALM      29.97S
HILL AFB       CLEAR     73  37  27 E13       30.00S
LOGAN          CLEAR     60  45  57 CALM      30.00R
OGDEN          CLEAR     70  41  34 S3        29.98R
PROVO AIRPORT  CLEAR     70  48  46 SE10      30.00R
SALT LAKE CITY PTCLDY    74  42  31 S5        29.96R
VERNAL         PTCLDY    65  45  48 NW3       30.13R
WENDOVER       PTCLDY    75  30  19 CALM      29.96R
HEBER CITY     CLEAR     61  41  48 SE3       30.10R
WEST JORDAN    CLEAR     73  41  31 SW8       30.00S

$$

UTZ012>022-026-027-010500-

SOUTHERN/CENTRAL UTAH

CITY           SKY/WX    TMP DP  RH WIND       PRES   REMARKS
BLANDING       CLOUDY    70  45  41 CALM      30.25R
BRYCE CANYON   PTCLDY    57  43  59 CALM      30.30R
CEDAR CITY     PTCLDY    71  40  32 SE6       30.11R
DELTA          PTCLDY    75  31  20 E6        30.00R
HANKSVILLE     CLOUDY    73  48  40 N6        30.05R
MILFORD        MOCLDY    73  37  27 S12       30.03R
MOAB/CYNLANDS  CLEAR     76  48  37 E3        30.04R
PRICE          PTCLDY    63  50  62 NE9       30.15R
ST GEORGE      MOCLDY    88  52  29 E16       29.91R
KANAB          MOCLDY    72  55  56 CALM      30.16R

$$

REGIONAL REPORTS     COLORADO/ARIZONA

CITY           SKY/WX    TMP DP  RH WIND       PRES   REMARKS
CRAIG, CO      MOCLDY    60  46  59 E9        30.22S
GRAND JUNCTION CLOUDY    75  55  49 SW5       30.09R
RIFLE          MOCLDY    66  50  56 SW6       30.18R
MONTROSE       MOCLDY    67  54  63 SE7       30.18R
CORTEZ         CLEAR     69  47  45 SE3       30.18R
PAGE, AZ       PTCLDY    77  55  46 SW7       30.06R
GRAND CANYON   MOCLDY    64  50  60 SE7         N/A
KINGMAN        CLEAR     81  46  29 S9        29.96R
FLAGSTAFF      CLOUDY    59  52  77 CALM      30.31R

$$

REGIONAL REPORTS    NEVADA/IDAHO/WYOMING

CITY           SKY/WX    TMP DP  RH WIND       PRES   REMARKS
LAS VEGAS, NV  CLEAR     94  34  12 SW8       29.78R
ELY            CLEAR     64  30  27 S13       30.09R
ELKO           CLEAR     70  28  21 CALM      29.99R
POCATELLO, ID  CLEAR     62  35  36 CALM      30.01R
BURLEY         CLEAR     58  45  62 S6        29.97R
EVANSTON, WY   CLEAR     65  30  27 W5        30.20R
ROCK SPRINGS   CLEAR     61  40  45 S12       30.17R
KEMMERER       CLEAR     57  27  30 N6        30.21R

$$



USA.gov is the U.S. government's official web portal to all federal, state and local government web resources and services.